owner,sensor,date,latitude,longitude,vertical_datum,wind_speed,wind_to_direction,wind_speed_of_gust,qcFlag 
DISL,ioos:station:DISL:MBLA:1,2006-12-01T00:00:00Z,30.4367,-88.0117,14.2,6.6,114.0,99.0,'11111222,11111222,11144222' 
DISL,ioos:station:DISL:MBLA:1,2006-12-01T00:30:00Z,30.4367,-88.0117,14.2,7.3,113.0,99.0,'11111222,11111222,11144222' 
DISL,ioos:station:DISL:MBLA:1,2006-12-01T01:00:00Z,30.4367,-88.0117,14.2,7.7,117.0,99.0,'11111222,11111222,11144222' 
DISL,ioos:station:DISL:MBLA:1,2006-12-01T01:30:00Z,30.4367,-88.0117,14.2,8.4,121.0,99.0,'11111222,11111222,11144222' 
DISL,ioos:station:DISL:MBLA:1,2006-12-01T02:00:00Z,30.4367,-88.0117,14.2,8.8,122.0,99.0,'11111222,11111222,11144222' 
DISL,ioos:station:DISL:MBLA:1,2006-12-01T02:30:00Z,30.4367,-88.0117,14.2,8.0,118.0,99.0,'11111222,11111222,11144222' 
DISL,ioos:station:DISL:MBLA:1,2006-12-01T03:00:00Z,30.4367,-88.0117,14.2,6.7,119.0,99.0,'11111222,11111222,11144222' 
DISL,ioos:station:DISL:MBLA:1,2006-12-01T03:30:00Z,30.4367,-88.0117,14.2,6.0,120.0,99.0,'11111222,11111222,11144222' 
DISL,ioos:station:DISL:MBLA:1,2006-12-01T04:00:00Z,30.4367,-88.0117,14.2,6.4,119.0,99.0,'11111222,11111222,11144222' 
DISL,ioos:station:DISL:MBLA:1,2006-12-01T04:30:00Z,30.4367,-88.0117,14.2,5.6,124.0,99.0,'11111222,11111222,11144222' 
DISL,ioos:station:DISL:MBLA:1,2006-12-01T05:00:00Z,30.4367,-88.0117,14.2,7.1,124.0,99.0,'11111222,11111222,11144222' 
DISL,ioos:station:DISL:MBLA:1,2006-12-01T05:30:00Z,30.4367,-88.0117,14.2,7.8,120.0,99.0,'11111222,11111222,11144222' 
DISL,ioos:station:DISL:MBLA:1,2006-12-01T06:00:00Z,30.4367,-88.0117,14.2,5.0,106.0,99.0,'11111222,11111222,11144222' 
DISL,ioos:station:DISL:MBLA:1,2006-12-01T06:30:00Z,30.4367,-88.0117,14.2,11.2,252.0,99.0,'11111222,11111222,11144222' 
DISL,ioos:station:DISL:MBLA:1,2006-12-01T07:00:00Z,30.4367,-88.0117,14.2,8.9,264.0,99.0,'11111222,11111222,11144222' 
DISL,ioos:station:DISL:MBLA:1,2006-12-01T07:30:00Z,30.4367,-88.0117,14.2,8.5,264.0,99.0,'11111222,11111222,11144222' 
DISL,ioos:station:DISL:MBLA:1,2006-12-01T08:00:00Z,30.4367,-88.0117,14.2,7.9,264.0,99.0,'11111222,11111222,11144222' 
DISL,ioos:station:DISL:MBLA:1,2006-12-01T08:30:00Z,30.4367,-88.0117,14.2,7.7,272.0,99.0,'11111222,11111222,11144222' 
DISL,ioos:station:DISL:MBLA:1,2006-12-01T09:00:00Z,30.4367,-88.0117,14.2,11.7,277.0,99.0,'11111222,11111222,11144222' 
DISL,ioos:station:DISL:MBLA:1,2006-12-01T09:30:00Z,30.4367,-88.0117,14.2,8.8,280.0,99.0,'11111222,11111222,11144222' 
DISL,ioos:station:DISL:MBLA:1,2006-12-01T10:00:00Z,30.4367,-88.0117,14.2,13.0,292.0,99.0,'11111222,11111222,11144222' 
DISL,ioos:station:DISL:MBLA:1,2006-12-01T10:30:00Z,30.4367,-88.0117,14.2,12.7,288.0,99.0,'11111222,11111222,11144222' 
DISL,ioos:station:DISL:MBLA:1,2006-12-01T11:00:00Z,30.4367,-88.0117,14.2,10.9,294.0,99.0,'11111222,11111222,11144222' 
DISL,ioos:station:DISL:MBLA:1,2006-12-01T11:30:00Z,30.4367,-88.0117,14.2,13.1,301.0,99.0,'11111222,11111222,11144222' 
DISL,ioos:station:DISL:MBLA:1,2006-12-01T12:00:00Z,30.4367,-88.0117,14.2,13.7,312.0,99.0,'11111222,11111222,11144222' 
DISL,ioos:station:DISL:MBLA:1,2006-12-01T12:30:00Z,30.4367,-88.0117,14.2,11.1,323.0,99.0,'11111222,11111222,11144222' 
DISL,ioos:station:DISL:MBLA:1,2006-12-01T13:00:00Z,30.4367,-88.0117,14.2,11.9,327.0,99.0,'11111222,11111222,11144222' 
DISL,ioos:station:DISL:MBLA:1,2006-12-01T13:30:00Z,30.4367,-88.0117,14.2,10.9,329.0,99.0,'11111222,11111222,11144222' 
DISL,ioos:station:DISL:MBLA:1,2006-12-01T14:00:00Z,30.4367,-88.0117,14.2,12.1,327.0,99.0,'11111222,11111222,11144222' 
DISL,ioos:station:DISL:MBLA:1,2006-12-01T14:30:00Z,30.4367,-88.0117,14.2,12.8,343.0,99.0,'11111222,11111222,11144222' 
DISL,ioos:station:DISL:MBLA:1,2006-12-01T15:00:00Z,30.4367,-88.0117,14.2,9.8,335.0,99.0,'11111222,11111222,11144222' 
DISL,ioos:station:DISL:MBLA:1,2006-12-01T15:30:00Z,30.4367,-88.0117,14.2,9.3,336.0,99.0,'11111222,11111222,11144222' 
DISL,ioos:station:DISL:MBLA:1,2006-12-01T16:00:00Z,30.4367,-88.0117,14.2,8.7,339.0,99.0,'11111222,11111222,11144222' 
DISL,ioos:station:DISL:MBLA:1,2006-12-01T16:30:00Z,30.4367,-88.0117,14.2,8.5,343.0,99.0,'11111222,11111222,11144222' 
DISL,ioos:station:DISL:MBLA:1,2006-12-01T17:00:00Z,30.4367,-88.0117,14.2,8.6,209.0,99.0,'11111222,11111222,11144222' 
DISL,ioos:station:DISL:MBLA:1,2006-12-01T17:30:00Z,30.4367,-88.0117,14.2,8.7,350.0,99.0,'11111222,11111222,11144222' 
DISL,ioos:station:DISL:MBLA:1,2006-12-01T18:00:00Z,30.4367,-88.0117,14.2,8.7,284.0,99.0,'11111222,11111222,11144222' 
DISL,ioos:station:DISL:MBLA:1,2006-12-01T18:30:00Z,30.4367,-88.0117,14.2,8.5,214.0,99.0,'11111222,11111222,11144222' 
DISL,ioos:station:DISL:MBLA:1,2006-12-01T19:00:00Z,30.4367,-88.0117,14.2,7.7,215.0,99.0,'11111222,11111222,11144222' 
DISL,ioos:station:DISL:MBLA:1,2006-12-01T19:30:00Z,30.4367,-88.0117,14.2,7.9,73.0,99.0,'11111222,11111222,11144222' 
DISL,ioos:station:DISL:MBLA:1,2006-12-01T20:00:00Z,30.4367,-88.0117,14.2,7.6,216.0,99.0,'11111222,11111222,11144222' 
DISL,ioos:station:DISL:MBLA:1,2006-12-01T20:30:00Z,30.4367,-88.0117,14.2,7.6,144.0,99.0,'11111222,11111222,11144222' 
DISL,ioos:station:DISL:MBLA:1,2006-12-01T21:00:00Z,30.4367,-88.0117,14.2,7.4,180.0,99.0,'11111222,11111222,11144222' 
DISL,ioos:station:DISL:MBLA:1,2006-12-01T21:30:00Z,30.4367,-88.0117,14.2,8.0,347.0,99.0,'11111222,11111222,11144222' 
DISL,ioos:station:DISL:MBLA:1,2006-12-01T22:00:00Z,30.4367,-88.0117,14.2,8.1,279.0,99.0,'11111222,11111222,11144222' 
DISL,ioos:station:DISL:MBLA:1,2006-12-01T22:30:00Z,30.4367,-88.0117,14.2,8.6,344.0,99.0,'11111222,11111222,11144222' 
DISL,ioos:station:DISL:MBLA:1,2006-12-01T23:00:00Z,30.4367,-88.0117,14.2,8.6,340.0,99.0,'11111222,11111222,11144222' 
DISL,ioos:station:DISL:MBLA:1,2006-12-01T23:30:00Z,30.4367,-88.0117,14.2,9.7,349.0,99.0,'11111222,11111222,11144222' 
DISL,ioos:station:DISL:MBLA:1,2006-12-02T00:00:00Z,30.4367,-88.0117,14.2,10.3,314.0,99.0,'11111222,11111222,11144222' 
DISL,ioos:station:DISL:MBLA:1,2006-12-02T00:30:00Z,30.4367,-88.0117,14.2,10.9,316.0,99.0,'11111222,11111222,11144222' 
DISL,ioos:station:DISL:MBLA:1,2006-12-02T01:00:00Z,30.4367,-88.0117,14.2,10.8,316.0,99.0,'11111222,11111222,11144222' 
DISL,ioos:station:DISL:MBLA:1,2006-12-02T01:30:00Z,30.4367,-88.0117,14.2,10.9,74.0,99.0,'11111222,11111222,11144222' 
DISL,ioos:station:DISL:MBLA:1,2006-12-02T02:00:00Z,30.4367,-88.0117,14.2,11.9,8.0,99.0,'11111222,11111222,11144222' 
DISL,ioos:station:DISL:MBLA:1,2006-12-02T02:30:00Z,30.4367,-88.0117,14.2,11.6,39.0,99.0,'11111222,11111222,11144222' 
DISL,ioos:station:DISL:MBLA:1,2006-12-02T03:00:00Z,30.4367,-88.0117,14.2,10.5,47.0,99.0,'11111222,11111222,11144222' 
DISL,ioos:station:DISL:MBLA:1,2006-12-02T03:30:00Z,30.4367,-88.0117,14.2,8.7,15.0,99.0,'11111222,11111222,11144222' 
DISL,ioos:station:DISL:MBLA:1,2006-12-02T04:00:00Z,30.4367,-88.0117,14.2,9.8,51.0,99.0,'11111222,11111222,11144222' 
DISL,ioos:station:DISL:MBLA:1,2006-12-02T04:30:00Z,30.4367,-88.0117,14.2,10.2,17.0,99.0,'11111222,11111222,11144222' 
DISL,ioos:station:DISL:MBLA:1,2006-12-02T05:00:00Z,30.4367,-88.0117,14.2,11.3,28.0,99.0,'11111222,11111222,11144222' 
DISL,ioos:station:DISL:MBLA:1,2006-12-02T05:30:00Z,30.4367,-88.0117,14.2,12.4,27.0,99.0,'11111222,11111222,11144222' 
DISL,ioos:station:DISL:MBLA:1,2006-12-02T06:00:00Z,30.4367,-88.0117,14.2,11.2,252.0,99.0,'11111222,11111222,11144222' 
DISL,ioos:station:DISL:MBLA:1,2006-12-02T06:30:00Z,30.4367,-88.0117,14.2,11.6,33.0,99.0,'11111222,11111222,11144222' 
DISL,ioos:station:DISL:MBLA:1,2006-12-02T07:00:00Z,30.4367,-88.0117,14.2,11.4,29.0,99.0,'11111222,11111222,11144222' 
DISL,ioos:station:DISL:MBLA:1,2006-12-02T07:30:00Z,30.4367,-88.0117,14.2,11.1,29.0,99.0,'11111222,11111222,11144222' 
DISL,ioos:station:DISL:MBLA:1,2006-12-02T08:00:00Z,30.4367,-88.0117,14.2,12.1,24.0,99.0,'11111222,11111222,11144222' 
DISL,ioos:station:DISL:MBLA:1,2006-12-02T08:30:00Z,30.4367,-88.0117,14.2,12.1,22.0,99.0,'11111222,11111222,11144222' 
DISL,ioos:station:DISL:MBLA:1,2006-12-02T09:00:00Z,30.4367,-88.0117,14.2,12.1,26.0,99.0,'11111222,11111222,11144222' 
DISL,ioos:station:DISL:MBLA:1,2006-12-02T09:30:00Z,30.4367,-88.0117,14.2,12.9,29.0,99.0,'11111222,11111222,11144222' 
DISL,ioos:station:DISL:MBLA:1,2006-12-02T10:00:00Z,30.4367,-88.0117,14.2,11.9,28.0,99.0,'11111222,11111222,11144222' 
DISL,ioos:station:DISL:MBLA:1,2006-12-02T10:30:00Z,30.4367,-88.0117,14.2,11.8,31.0,99.0,'11111222,11111222,11144222' 
DISL,ioos:station:DISL:MBLA:1,2006-12-02T11:00:00Z,30.4367,-88.0117,14.2,11.9,25.0,99.0,'11111222,11111222,11144222' 
DISL,ioos:station:DISL:MBLA:1,2006-12-02T11:30:00Z,30.4367,-88.0117,14.2,9.9,13.0,99.0,'11111222,11111222,11144222' 
DISL,ioos:station:DISL:MBLA:1,2006-12-02T12:00:00Z,30.4367,-88.0117,14.2,10.1,15.0,99.0,'11111222,11111222,11144222' 
DISL,ioos:station:DISL:MBLA:1,2006-12-02T12:30:00Z,30.4367,-88.0117,14.2,10.3,16.0,99.0,'11111222,11111222,11144222' 
DISL,ioos:station:DISL:MBLA:1,2006-12-02T13:00:00Z,30.4367,-88.0117,14.2,10.7,18.0,99.0,'11111222,11111222,11144222' 
DISL,ioos:station:DISL:MBLA:1,2006-12-02T13:30:00Z,30.4367,-88.0117,14.2,10.5,15.0,99.0,'11111222,11111222,11144222' 
DISL,ioos:station:DISL:MBLA:1,2006-12-02T14:00:00Z,30.4367,-88.0117,14.2,9.5,21.0,99.0,'11111222,11111222,11144222' 
DISL,ioos:station:DISL:MBLA:1,2006-12-02T14:30:00Z,30.4367,-88.0117,14.2,8.5,24.0,99.0,'11111222,11111222,11144222' 
DISL,ioos:station:DISL:MBLA:1,2006-12-02T15:00:00Z,30.4367,-88.0117,14.2,8.5,16.0,99.0,'11111222,11111222,11144222' 
DISL,ioos:station:DISL:MBLA:1,2006-12-02T15:30:00Z,30.4367,-88.0117,14.2,7.2,25.0,99.0,'11111222,11111222,11144222' 
DISL,ioos:station:DISL:MBLA:1,2006-12-02T16:00:00Z,30.4367,-88.0117,14.2,5.7,25.0,99.0,'11111222,11111222,11144222' 
DISL,ioos:station:DISL:MBLA:1,2006-12-02T16:30:00Z,30.4367,-88.0117,14.2,6.2,148.0,99.0,'11111222,11111222,11144222' 
DISL,ioos:station:DISL:MBLA:1,2006-12-02T17:00:00Z,30.4367,-88.0117,14.2,6.9,45.0,99.0,'11111222,11111222,11144222' 
DISL,ioos:station:DISL:MBLA:1,2006-12-02T17:30:00Z,30.4367,-88.0117,14.2,6.4,111.0,99.0,'11111222,11111222,11144222' 
DISL,ioos:station:DISL:MBLA:1,2006-12-02T18:00:00Z,30.4367,-88.0117,14.2,6.4,249.0,99.0,'11111222,11111222,11144222' 
DISL,ioos:station:DISL:MBLA:1,2006-12-02T18:30:00Z,30.4367,-88.0117,14.2,6.8,321.0,99.0,'11111222,11111222,11144222' 
DISL,ioos:station:DISL:MBLA:1,2006-12-02T19:00:00Z,30.4367,-88.0117,14.2,7.1,285.0,99.0,'11111222,11111222,11144222' 
DISL,ioos:station:DISL:MBLA:1,2006-12-02T19:30:00Z,30.4367,-88.0117,14.2,7.9,349.0,99.0,'11111222,11111222,11144222' 
DISL,ioos:station:DISL:MBLA:1,2006-12-02T20:00:00Z,30.4367,-88.0117,14.2,8.0,352.0,99.0,'11111222,11111222,11144222' 
DISL,ioos:station:DISL:MBLA:1,2006-12-02T20:30:00Z,30.4367,-88.0117,14.2,6.5,348.0,99.0,'11111222,11111222,11144222' 
DISL,ioos:station:DISL:MBLA:1,2006-12-02T21:00:00Z,30.4367,-88.0117,14.2,6.5,351.0,99.0,'11111222,11111222,11144222' 
DISL,ioos:station:DISL:MBLA:1,2006-12-02T21:30:00Z,30.4367,-88.0117,14.2,6.0,353.0,99.0,'11111222,11111222,11144222' 
DISL,ioos:station:DISL:MBLA:1,2006-12-02T22:00:00Z,30.4367,-88.0117,14.2,6.4,348.0,99.0,'11111222,11111222,11144222' 
DISL,ioos:station:DISL:MBLA:1,2006-12-02T22:30:00Z,30.4367,-88.0117,14.2,6.5,349.0,99.0,'11111222,11111222,11144222' 
DISL,ioos:station:DISL:MBLA:1,2006-12-02T23:00:00Z,30.4367,-88.0117,14.2,6.0,350.0,99.0,'11111222,11111222,11144222' 
DISL,ioos:station:DISL:MBLA:1,2006-12-02T23:30:00Z,30.4367,-88.0117,14.2,6.3,109.0,99.0,'11111222,11111222,11144222' 
DISL,ioos:station:DISL:MBLA:1,2006-12-03T00:00:00Z,30.4367,-88.0117,14.2,4.9,349.0,99.0,'11111222,11111222,11144222' 
DISL,ioos:station:DISL:MBLA:1,2006-12-03T00:30:00Z,30.4367,-88.0117,14.2,5.9,346.0,99.0,'11111222,11111222,11144222' 
DISL,ioos:station:DISL:MBLA:1,2006-12-03T01:00:00Z,30.4367,-88.0117,14.2,7.1,341.0,99.0,'11111222,11111222,11144222' 
DISL,ioos:station:DISL:MBLA:1,2006-12-03T01:30:00Z,30.4367,-88.0117,14.2,8.0,351.0,99.0,'11111222,11111222,11144222' 
DISL,ioos:station:DISL:MBLA:1,2006-12-03T02:00:00Z,30.4367,-88.0117,14.2,7.5,285.0,99.0,'11111222,11111222,11144222' 
DISL,ioos:station:DISL:MBLA:1,2006-12-03T02:30:00Z,30.4367,-88.0117,14.2,9.0,37.0,99.0,'11111222,11111222,11144222' 
DISL,ioos:station:DISL:MBLA:1,2006-12-03T03:00:00Z,30.4367,-88.0117,14.2,10.2,15.0,99.0,'11111222,11111222,11144222' 
DISL,ioos:station:DISL:MBLA:1,2006-12-03T03:30:00Z,30.4367,-88.0117,14.2,10.1,13.0,99.0,'11111222,11111222,11144222' 
DISL,ioos:station:DISL:MBLA:1,2006-12-03T04:00:00Z,30.4367,-88.0117,14.2,10.3,19.0,99.0,'11111222,11111222,11144222' 
DISL,ioos:station:DISL:MBLA:1,2006-12-03T04:30:00Z,30.4367,-88.0117,14.2,10.8,21.0,99.0,'11111222,11111222,11144222' 
DISL,ioos:station:DISL:MBLA:1,2006-12-03T05:00:00Z,30.4367,-88.0117,14.2,9.5,19.0,99.0,'11111222,11111222,11144222' 
DISL,ioos:station:DISL:MBLA:1,2006-12-03T05:30:00Z,30.4367,-88.0117,14.2,9.3,109.0,99.0,'11111222,11111222,11144222' 
DISL,ioos:station:DISL:MBLA:1,2006-12-03T06:00:00Z,30.4367,-88.0117,14.2,11.6,33.0,99.0,'11111222,11111222,11144222' 
DISL,ioos:station:DISL:MBLA:1,2006-12-03T06:30:00Z,30.4367,-88.0117,14.2,9.9,7.0,99.0,'11111222,11111222,11144222' 
DISL,ioos:station:DISL:MBLA:1,2006-12-03T07:00:00Z,30.4367,-88.0117,14.2,9.5,74.0,99.0,'11111222,11111222,11144222' 
DISL,ioos:station:DISL:MBLA:1,2006-12-03T07:30:00Z,30.4367,-88.0117,14.2,9.3,40.0,99.0,'11111222,11111222,11144222' 
DISL,ioos:station:DISL:MBLA:1,2006-12-03T08:00:00Z,30.4367,-88.0117,14.2,9.7,3.0,99.0,'11111222,11111222,11144222' 
DISL,ioos:station:DISL:MBLA:1,2006-12-03T08:30:00Z,30.4367,-88.0117,14.2,9.2,7.0,99.0,'11111222,11111222,11144222' 
DISL,ioos:station:DISL:MBLA:1,2006-12-03T09:00:00Z,30.4367,-88.0117,14.2,9.0,12.0,99.0,'11111222,11111222,11144222' 
DISL,ioos:station:DISL:MBLA:1,2006-12-03T09:30:00Z,30.4367,-88.0117,14.2,8.4,12.0,99.0,'11111222,11111222,11144222' 
DISL,ioos:station:DISL:MBLA:1,2006-12-03T10:00:00Z,30.4367,-88.0117,14.2,8.0,12.0,99.0,'11111222,11111222,11144222' 
DISL,ioos:station:DISL:MBLA:1,2006-12-03T10:30:00Z,30.4367,-88.0117,14.2,7.5,40.0,99.0,'11111222,11111222,11144222' 
DISL,ioos:station:DISL:MBLA:1,2006-12-03T11:00:00Z,30.4367,-88.0117,14.2,6.7,281.0,99.0,'11111222,11111222,11144222' 
DISL,ioos:station:DISL:MBLA:1,2006-12-03T11:30:00Z,30.4367,-88.0117,14.2,7.1,251.0,99.0,'11111222,11111222,11144222' 
DISL,ioos:station:DISL:MBLA:1,2006-12-03T12:00:00Z,30.4367,-88.0117,14.2,7.1,109.0,99.0,'11111222,11111222,11144222' 
DISL,ioos:station:DISL:MBLA:1,2006-12-03T12:30:00Z,30.4367,-88.0117,14.2,7.4,144.0,99.0,'11111222,11111222,11144222' 
DISL,ioos:station:DISL:MBLA:1,2006-12-03T13:00:00Z,30.4367,-88.0117,14.2,7.5,181.0,99.0,'11111222,11111222,11144222' 
DISL,ioos:station:DISL:MBLA:1,2006-12-03T13:30:00Z,30.4367,-88.0117,14.2,7.5,347.0,99.0,'11111222,11111222,11144222' 
DISL,ioos:station:DISL:MBLA:1,2006-12-03T14:00:00Z,30.4367,-88.0117,14.2,9.3,349.0,99.0,'11111222,11111222,11144222' 
DISL,ioos:station:DISL:MBLA:1,2006-12-03T14:30:00Z,30.4367,-88.0117,14.2,9.2,283.0,99.0,'11111222,11111222,11144222' 
DISL,ioos:station:DISL:MBLA:1,2006-12-03T15:00:00Z,30.4367,-88.0117,14.2,9.3,353.0,99.0,'11111222,11111222,11144222' 
DISL,ioos:station:DISL:MBLA:1,2006-12-03T15:30:00Z,30.4367,-88.0117,14.2,7.4,250.0,99.0,'11111222,11111222,11144222' 
DISL,ioos:station:DISL:MBLA:1,2006-12-03T16:00:00Z,30.4367,-88.0117,14.2,7.5,319.0,99.0,'11111222,11111222,11144222' 
DISL,ioos:station:DISL:MBLA:1,2006-12-03T16:30:00Z,30.4367,-88.0117,14.2,7.1,349.0,99.0,'11111222,11111222,11144222' 
DISL,ioos:station:DISL:MBLA:1,2006-12-03T17:00:00Z,30.4367,-88.0117,14.2,7.1,350.0,99.0,'11111222,11111222,11144222' 
DISL,ioos:station:DISL:MBLA:1,2006-12-03T17:30:00Z,30.4367,-88.0117,14.2,6.5,351.0,99.0,'11111222,11111222,11144222' 
DISL,ioos:station:DISL:MBLA:1,2006-12-03T18:00:00Z,30.4367,-88.0117,14.2,5.3,7.0,99.0,'11111222,11111222,11144222' 
DISL,ioos:station:DISL:MBLA:1,2006-12-03T18:30:00Z,30.4367,-88.0117,14.2,5.4,9.0,99.0,'11111222,11111222,11144222' 
DISL,ioos:station:DISL:MBLA:1,2006-12-03T19:00:00Z,30.4367,-88.0117,14.2,5.5,15.0,99.0,'11111222,11111222,11144222' 
DISL,ioos:station:DISL:MBLA:1,2006-12-03T19:30:00Z,30.4367,-88.0117,14.2,6.6,6.0,99.0,'11111222,11111222,11144222' 
DISL,ioos:station:DISL:MBLA:1,2006-12-03T20:00:00Z,30.4367,-88.0117,14.2,6.3,7.0,99.0,'11111222,11111222,11144222' 
DISL,ioos:station:DISL:MBLA:1,2006-12-03T20:30:00Z,30.4367,-88.0117,14.2,7.3,3.0,99.0,'11111222,11111222,11144222' 
DISL,ioos:station:DISL:MBLA:1,2006-12-03T21:00:00Z,30.4367,-88.0117,14.2,7.0,108.0,99.0,'11111222,11111222,11144222' 
DISL,ioos:station:DISL:MBLA:1,2006-12-03T21:30:00Z,30.4367,-88.0117,14.2,6.2,41.0,99.0,'11111222,11111222,11144222' 
DISL,ioos:station:DISL:MBLA:1,2006-12-03T22:00:00Z,30.4367,-88.0117,14.2,6.5,354.0,99.0,'11111222,11111222,11144222' 
DISL,ioos:station:DISL:MBLA:1,2006-12-03T22:30:00Z,30.4367,-88.0117,14.2,8.5,340.0,99.0,'11111222,11111222,11144222' 
DISL,ioos:station:DISL:MBLA:1,2006-12-03T23:00:00Z,30.4367,-88.0117,14.2,9.0,346.0,99.0,'11111222,11111222,11144222' 
DISL,ioos:station:DISL:MBLA:1,2006-12-03T23:30:00Z,30.4367,-88.0117,14.2,9.5,344.0,99.0,'11111222,11111222,11144222' 
DISL,ioos:station:DISL:MBLA:1,2006-12-04T00:00:00Z,30.4367,-88.0117,14.2,10.8,343.0,99.0,'11111222,11111222,11144222' 
DISL,ioos:station:DISL:MBLA:1,2006-12-04T00:30:00Z,30.4367,-88.0117,14.2,11.0,348.0,99.0,'11111222,11111222,11144222' 
DISL,ioos:station:DISL:MBLA:1,2006-12-04T01:00:00Z,30.4367,-88.0117,14.2,12.0,348.0,99.0,'11111222,11111222,11144222' 
DISL,ioos:station:DISL:MBLA:1,2006-12-04T01:30:00Z,30.4367,-88.0117,14.2,15.9,350.0,99.0,'11111222,11111222,11144222' 
DISL,ioos:station:DISL:MBLA:1,2006-12-04T02:00:00Z,30.4367,-88.0117,14.2,15.7,214.0,99.0,'11111222,11111222,11144222' 
DISL,ioos:station:DISL:MBLA:1,2006-12-04T02:30:00Z,30.4367,-88.0117,14.2,15.5,74.0,99.0,'11111222,11111222,11144222' 
DISL,ioos:station:DISL:MBLA:1,2006-12-04T03:00:00Z,30.4367,-88.0117,14.2,16.3,214.0,99.0,'11111222,11111222,11144222' 
DISL,ioos:station:DISL:MBLA:1,2006-12-04T03:30:00Z,30.4367,-88.0117,14.2,16.3,283.0,99.0,'11111222,11111222,11144222' 
DISL,ioos:station:DISL:MBLA:1,2006-12-04T04:00:00Z,30.4367,-88.0117,14.2,15.9,318.0,99.0,'11111222,11111222,11144222' 
DISL,ioos:station:DISL:MBLA:1,2006-12-04T04:30:00Z,30.4367,-88.0117,14.2,15.8,319.0,99.0,'11111222,11111222,11144222' 
DISL,ioos:station:DISL:MBLA:1,2006-12-04T05:00:00Z,30.4367,-88.0117,14.2,15.7,249.0,99.0,'11111222,11111222,11144222' 
DISL,ioos:station:DISL:MBLA:1,2006-12-04T05:30:00Z,30.4367,-88.0117,14.2,17.3,146.0,99.0,'11111222,11111222,11144222' 
DISL,ioos:station:DISL:MBLA:1,2006-12-04T06:00:00Z,30.4367,-88.0117,14.2,9.9,7.0,99.0,'11111222,11111222,11144222' 
DISL,ioos:station:DISL:MBLA:1,2006-12-04T06:30:00Z,30.4367,-88.0117,14.2,17.3,250.0,99.0,'11111222,11111222,11144222' 
DISL,ioos:station:DISL:MBLA:1,2006-12-04T07:00:00Z,30.4367,-88.0117,14.2,16.2,216.0,99.0,'11111222,11111222,11144222' 
DISL,ioos:station:DISL:MBLA:1,2006-12-04T07:30:00Z,30.4367,-88.0117,14.2,15.8,216.0,99.0,'11111222,11111222,11144222' 
DISL,ioos:station:DISL:MBLA:1,2006-12-04T08:00:00Z,30.4367,-88.0117,14.2,15.9,81.0,99.0,'11111222,11111222,11144222' 
DISL,ioos:station:DISL:MBLA:1,2006-12-04T08:30:00Z,30.4367,-88.0117,14.2,14.8,108.0,99.0,'11111222,11111222,11144222' 
DISL,ioos:station:DISL:MBLA:1,2006-12-04T09:00:00Z,30.4367,-88.0117,14.2,14.6,13.0,99.0,'11111222,11111222,11144222' 
DISL,ioos:station:DISL:MBLA:1,2006-12-04T09:30:00Z,30.4367,-88.0117,14.2,14.0,10.0,99.0,'11111222,11111222,11144222' 
DISL,ioos:station:DISL:MBLA:1,2006-12-04T10:00:00Z,30.4367,-88.0117,14.2,12.9,76.0,99.0,'11111222,11111222,11144222' 
DISL,ioos:station:DISL:MBLA:1,2006-12-04T10:30:00Z,30.4367,-88.0117,14.2,14.2,179.0,99.0,'11111222,11111222,11144222' 
DISL,ioos:station:DISL:MBLA:1,2006-12-04T11:00:00Z,30.4367,-88.0117,14.2,13.7,109.0,99.0,'11111222,11111222,11144222' 
DISL,ioos:station:DISL:MBLA:1,2006-12-04T11:30:00Z,30.4367,-88.0117,14.2,13.9,142.0,99.0,'11111222,11111222,11144222' 
DISL,ioos:station:DISL:MBLA:1,2006-12-04T12:00:00Z,30.4367,-88.0117,14.2,13.9,214.0,99.0,'11111222,11111222,11144222' 
DISL,ioos:station:DISL:MBLA:1,2006-12-04T12:30:00Z,30.4367,-88.0117,14.2,13.0,180.0,99.0,'11111222,11111222,11144222' 
DISL,ioos:station:DISL:MBLA:1,2006-12-04T13:00:00Z,30.4367,-88.0117,14.2,13.0,216.0,99.0,'11111222,11111222,11144222' 
DISL,ioos:station:DISL:MBLA:1,2006-12-04T13:30:00Z,30.4367,-88.0117,14.2,14.0,73.0,99.0,'11111222,11111222,11144222' 
DISL,ioos:station:DISL:MBLA:1,2006-12-04T14:00:00Z,30.4367,-88.0117,14.2,14.5,179.0,99.0,'11111222,11111222,11144222' 
DISL,ioos:station:DISL:MBLA:1,2006-12-04T14:30:00Z,30.4367,-88.0117,14.2,12.6,147.0,99.0,'11111222,11111222,11144222' 
DISL,ioos:station:DISL:MBLA:1,2006-12-04T15:00:00Z,30.4367,-88.0117,14.2,12.6,74.0,99.0,'11111222,11111222,11144222' 
DISL,ioos:station:DISL:MBLA:1,2006-12-04T15:30:00Z,30.4367,-88.0117,14.2,12.0,39.0,99.0,'11111222,11111222,11144222' 
DISL,ioos:station:DISL:MBLA:1,2006-12-04T16:00:00Z,30.4367,-88.0117,14.2,11.7,5.0,99.0,'11111222,11111222,11144222' 
DISL,ioos:station:DISL:MBLA:1,2006-12-04T16:30:00Z,30.4367,-88.0117,14.2,11.5,74.0,99.0,'11111222,11111222,11144222' 
DISL,ioos:station:DISL:MBLA:1,2006-12-04T17:00:00Z,30.4367,-88.0117,14.2,11.0,112.0,99.0,'11111222,11111222,11144222' 
DISL,ioos:station:DISL:MBLA:1,2006-12-04T17:30:00Z,30.4367,-88.0117,14.2,11.6,7.0,99.0,'11111222,11111222,11144222' 
DISL,ioos:station:DISL:MBLA:1,2006-12-04T18:00:00Z,30.4367,-88.0117,14.2,12.0,10.0,99.0,'11111222,11111222,11144222' 
DISL,ioos:station:DISL:MBLA:1,2006-12-04T18:30:00Z,30.4367,-88.0117,14.2,11.5,11.0,99.0,'11111222,11111222,11144222' 
DISL,ioos:station:DISL:MBLA:1,2006-12-04T19:00:00Z,30.4367,-88.0117,14.2,11.3,76.0,99.0,'11111222,11111222,11144222' 
DISL,ioos:station:DISL:MBLA:1,2006-12-04T19:30:00Z,30.4367,-88.0117,14.2,12.2,111.0,99.0,'11111222,11111222,11144222' 
DISL,ioos:station:DISL:MBLA:1,2006-12-04T20:00:00Z,30.4367,-88.0117,14.2,11.4,42.0,99.0,'11111222,11111222,11144222' 
DISL,ioos:station:DISL:MBLA:1,2006-12-04T20:30:00Z,30.4367,-88.0117,14.2,10.9,110.0,99.0,'11111222,11111222,11144222' 
DISL,ioos:station:DISL:MBLA:1,2006-12-04T21:00:00Z,30.4367,-88.0117,14.2,10.5,42.0,99.0,'11111222,11111222,11144222' 
DISL,ioos:station:DISL:MBLA:1,2006-12-04T21:30:00Z,30.4367,-88.0117,14.2,10.9,4.0,99.0,'11111222,11111222,11144222' 
DISL,ioos:station:DISL:MBLA:1,2006-12-04T22:00:00Z,30.4367,-88.0117,14.2,11.3,42.0,99.0,'11111222,11111222,11144222' 
DISL,ioos:station:DISL:MBLA:1,2006-12-04T22:30:00Z,30.4367,-88.0117,14.2,10.1,42.0,99.0,'11111222,11111222,11144222' 
DISL,ioos:station:DISL:MBLA:1,2006-12-04T23:00:00Z,30.4367,-88.0117,14.2,10.0,39.0,99.0,'11111222,11111222,11144222' 
DISL,ioos:station:DISL:MBLA:1,2006-12-04T23:30:00Z,30.4367,-88.0117,14.2,10.2,2.0,99.0,'11111222,11111222,11144222' 
DISL,ioos:station:DISL:MBLA:1,2006-12-05T00:00:00Z,30.4367,-88.0117,14.2,10.4,74.0,99.0,'11111222,11111222,11144222' 
DISL,ioos:station:DISL:MBLA:1,2006-12-05T00:30:00Z,30.4367,-88.0117,14.2,10.0,111.0,99.0,'11111222,11111222,11144222' 
DISL,ioos:station:DISL:MBLA:1,2006-12-05T01:00:00Z,30.4367,-88.0117,14.2,10.8,73.0,99.0,'11111222,11111222,11144222' 
DISL,ioos:station:DISL:MBLA:1,2006-12-05T01:30:00Z,30.4367,-88.0117,14.2,10.9,10.0,99.0,'11111222,11111222,11144222' 
DISL,ioos:station:DISL:MBLA:1,2006-12-05T02:00:00Z,30.4367,-88.0117,14.2,10.3,15.0,99.0,'11111222,11111222,11144222' 
DISL,ioos:station:DISL:MBLA:1,2006-12-05T02:30:00Z,30.4367,-88.0117,14.2,10.2,12.0,99.0,'11111222,11111222,11144222' 
DISL,ioos:station:DISL:MBLA:1,2006-12-05T03:00:00Z,30.4367,-88.0117,14.2,9.7,15.0,99.0,'11111222,11111222,11144222' 
DISL,ioos:station:DISL:MBLA:1,2006-12-05T03:30:00Z,30.4367,-88.0117,14.2,9.9,23.0,99.0,'11111222,11111222,11144222' 
DISL,ioos:station:DISL:MBLA:1,2006-12-05T04:00:00Z,30.4367,-88.0117,14.2,9.2,19.0,99.0,'11111222,11111222,11144222' 
DISL,ioos:station:DISL:MBLA:1,2006-12-05T04:30:00Z,30.4367,-88.0117,14.2,9.2,14.0,99.0,'11111222,11111222,11144222' 